GW3387 Weather Reports


time (UTC)temp
C
wind
direction
speed
KPH
gust
KPH
rain 1hr
cm
rain 24hr
cm
rain mn
cm
humidity
%
barometer
mb
20260506144542 27 121 6.4 20.9 0.00 0.00 0.00 89 1006.7
20260506143144 27 174 6.4 22.5 0.00 0.00 0.00 89 1006.7
20260506141540 27 175 9.7 19.3 0.00 0.00 0.00 87 1006.6
20260506140040 27 163 8.0 19.3 0.00 0.00 0.00 87 1006.5
20260506134538 28 213 9.7 16.1 0.00 0.00 0.00 87 1007.1
20260506133040 28 211 6.4 17.7 0.00 0.00 0.00 88 1006.9
20260506131536 27 189 4.8 25.7 0.00 0.00 0.00 87 1007.0
20260506130033 27 161 11.3 19.3 0.00 0.00 0.00 87 1007.2
20260506124531 27 203 4.8 17.7 0.00 0.00 0.00 86 1007.2
20260506123028 27 185 9.7 27.4 0.00 0.00 0.00 87 1007.3
20260506121527 27 132 8.0 25.7 0.00 0.00 0.00 88 1007.3
20260506120025 27 124 9.7 20.9 0.00 0.00 0.00 88 1007.6
20260506114532 27 173 9.7 22.5 0.00 0.00 0.00 90 1007.7
20260506113020 27 205 9.7 17.7 0.00 0.00 0.00 88 1007.8
20260506111515 27 207 8.0 17.7 0.00 0.00 0.00 91 1008.0
20260506110012 27 217 9.7 19.3 0.00 0.00 0.00 89 1008.1
20260506104509 27 225 8.0 19.3 0.00 0.00 0.00 92 1008.3
20260506103013 26 206 6.4 14.5 0.00 0.00 0.00 93 1008.5
20260506101503 26 228 8.0 16.1 0.00 0.00 0.00 94 1008.5
20260506100101 26 203 6.4 16.1 0.00 0.00 0.00 92 1008.5
20260506094600 26 225 6.4 12.9 0.00 0.00 0.00 93 1008.6
20260506093102 25 94 8.0 17.7 0.00 0.00 0.00 94 1008.7
20260506091553 25 188 4.8 14.5 0.00 0.00 0.00 96 1008.9
20260506090049 25 134 4.8 14.5 0.00 0.00 0.00 98 1008.9
20260506084549 24 203 1.6 12.9 0.00 0.00 0.00 100 1008.9
20260506083042 23 216 3.2 12.9 0.00 0.00 0.00 100 1009.0
20260506081537 23 196 3.2 9.7 0.00 0.00 0.00 100 1009.1
20260506073023 21 139 4.8 11.3 0.00 0.00 0.00 100 1009.3
20260506071520 20 193 3.2 11.3 0.00 0.00 0.00 100 1009.4
20260506061501 17 154 6.4 14.5 0.00 0.00 0.00 100 1009.3
20260506044534 13 137 3.2 11.3 0.00 0.00 0.00 100 1009.5
20260506043028 11 196 0.0 4.8 0.00 0.00 0.00 100 1009.6
20260506041530 8 360 0.0 1.6 0.00 0.00 0.00 100 1009.4
20260506040019 7 360 0.0 0.0 0.00 0.00 0.00 100 1009.2
20260506034515 6 360 0.0 0.0 0.00 0.00 0.00 100 1009.1
20260506033010 5 360 0.0 0.0 0.00 0.00 0.00 100 1009.1
20260506031512 5 360 0.0 0.0 0.00 0.00 0.00 100 1009.2
20260506030008 5 360 0.0 0.0 0.00 0.00 0.00 100 1009.1
20260506024502 6 360 0.0 0.0 0.00 0.00 0.00 100 1009.0
20260506023101 6 360 0.0 0.0 0.00 0.00 0.00 100 1009.0
20260506021558 6 360 0.0 3.2 0.00 0.00 0.00 100 1009.0
20260506020055 6 360 0.0 0.0 0.00 0.00 0.00 100 1009.0
20260506014556 7 360 0.0 0.0 0.00 0.00 0.00 100 1009.0
20260506013050 7 360 0.0 0.0 0.00 0.00 0.00 100 1009.0
20260506011550 7 360 0.0 0.0 0.00 0.00 0.00 100 1008.9
20260506010050 7 360 0.0 0.0 0.00 0.00 0.00 100 1008.9
20260506004550 7 360 0.0 0.0 0.00 0.00 0.00 100 1008.9
20260506003048 7 360 0.0 0.0 0.00 0.00 0.00 100 1008.8
20260506001606 7 360 0.0 0.0 0.00 0.00 0.00 100 1008.7
20260506000048 7 360 0.0 0.0 0.00 0.00 0.00 100 1008.7
20260505234547 8 360 0.0 3.2 0.00 0.00 0.00 100 1008.8
20260505233037 9 360 0.0 0.0 0.00 0.00 0.00 100 1008.7
20260505231544 9 360 0.0 1.6 0.00 0.00 0.00 100 1008.7
20260505230038 9 360 0.0 1.6 0.00 0.00 0.00 100 1008.8
20260505224538 9 360 0.0 1.6 0.00 0.00 0.00 100 1008.8
20260505223040 10 360 0.0 0.0 0.00 0.00 0.00 100 1008.9
20260505221529 10 360 0.0 1.6 0.00 0.00 0.00 100 1008.9
20260505220036 10 360 0.0 0.0 0.00 0.00 0.00 100 1008.8
20260505214546 10 360 3.2 9.7 0.00 0.00 0.00 100 1009.0
20260505213038 11 360 0.0 0.0 0.00 0.00 0.00 100 1008.6
20260505211519 11 360 0.0 0.0 0.00 0.00 0.00 100 1008.6
20260505210016 12 360 0.0 0.0 0.00 0.00 0.00 100 1008.6
20260505204524 13 360 0.0 0.0 0.00 0.00 0.00 100 1008.5
20260505203015 13 360 0.0 0.0 0.00 0.00 0.00 100 1008.5
20260505201517 13 360 0.0 0.0 0.00 0.00 0.00 100 1008.4
20260505200012 14 360 0.0 0.0 0.00 0.00 0.00 100 1008.3
20260505194512 15 360 0.0 0.0 0.00 0.00 0.00 100 1008.3
20260505193033 16 360 0.0 0.0 0.00 0.00 0.00 100 1008.1
20260505191512 16 360 0.0 1.6 0.00 0.00 0.00 100 1008.1
20260505190026 17 360 0.0 1.6 0.00 0.00 0.00 99 1008.0
20260505184510 17 360 0.0 0.0 0.00 0.00 0.00 97 1007.9
20260505183016 18 360 0.0 0.0 0.00 0.00 0.00 96 1007.9
20260505181515 18 360 0.0 0.0 0.00 0.00 0.00 94 1007.7
20260505180015 20 360 0.0 1.6 0.00 0.00 0.00 93 1007.6
20260505174508 21 360 0.0 0.0 0.00 0.00 0.00 92 1007.5
20260505173009 22 360 0.0 1.6 0.00 0.00 0.00 89 1007.4
20260505171609 23 188 0.0 1.6 0.00 0.00 0.00 87 1007.3
20260505170011 25 188 0.0 1.6 0.00 0.00 0.00 85 1007.3
20260505164505 25 188 0.0 1.6 0.00 0.00 0.00 84 1007.4
20260505163006 25 177 0.0 4.8 0.00 0.00 0.00 84 1007.4
20260505161505 26 173 0.0 3.2 0.00 0.00 0.00 84 1007.5
20260505153002 26 201 8.0 11.3 0.00 0.00 0.00 85 1007.4
20260505151600 26 167 0.0 6.4 0.00 0.00 0.00 83 1007.6
20260505150116 26 226 3.2 9.7 0.00 0.00 0.00 84 1007.7